Jaffrey, NH

10:01 PM EDT on April 25, 2018 (GMT -0400)
Jaffrey Airport-Silver Ranch

Weather History for KAFN - December, 2011

Change the Weather History Date:

Sunday, December 4, 2011

  Actual Average Record
Temperature  
Mean Temperature 35 °F -  
Max Temperature 46 °F 37 °F 62 °F (1998)
Min Temperature 24 °F 21 °F 8 °F (2002)
Degree Days  
Heating Degree Days 30    
Moisture  
Dew Point 32 °F    
Average Humidity 83    
Maximum Humidity 96    
Minimum Humidity 63    
Precipitation  
Precipitation 0.00 in - - ()
Sea Level Pressure  
Sea Level Pressure 30.51 in    
Wind  
Wind Speed 4 mph (SSW)    
Max Wind Speed 17 mph    
Max Gust Speed 26 mph    
Visibility 10 miles    
Events      
Averages and records for this station are not official NWS values.
T = Trace of Precipitation, MM = Missing Value Source: NWS Daily Summary

Daily Weather History Graph

Daily Weather History Graph

Search for Another Location

Airport or City:

Astronomy

Dec. 04, 2011 Rise Set
Actual Time 7:01 AM EST 4:14 PM EST
Civil Twilight 6:29 AM EST 4:46 PM EST
Nautical Twilight 5:54 AM EST 5:21 PM EST
Astronomical Twilight 5:20 AM EST 5:55 PM EST
Moon 12:49 PM EST (12/4) 1:17 AM EST (12/4)
Length of Visible Light 10h 16m
Length of Day
9h 12m
Waxing Gibbous, 71% of the Moon is Illuminated
Dec 4
Waxing Gibbous
Dec 10
Full
Dec 17
Last Quarter
Dec 24
New
Jan 1
First Quarter

Hourly Weather History & Observations

Time (EST) Temp. Windchill Dew Point Humidity Pressure Visibility Wind Dir Wind Speed Gust Speed Precip Events Conditions
12:52 AM 25.0 °F - 23.0 °F 92% 30.62 in 8.0 mi Calm Calm - N/A   Clear
1:52 AM 24.1 °F - 23.0 °F 96% 30.61 in 8.0 mi Calm Calm - N/A   Clear
2:52 AM 24.1 °F - 21.9 °F 91% 30.60 in 9.0 mi Calm Calm - N/A   Clear
3:52 AM 24.1 °F - 21.9 °F 91% 30.60 in 8.0 mi Calm Calm - N/A   Clear
4:32 AM 24.8 °F - 23.0 °F 93% 30.55 in 9.0 mi Calm Calm - N/A   Mostly Cloudy
4:52 AM 26.1 °F - 25.0 °F 96% 30.61 in 9.0 mi Calm Calm - N/A   Overcast
5:52 AM 28.9 °F - 28.0 °F 96% 30.60 in 9.0 mi Calm Calm - N/A   Overcast
6:52 AM 28.0 °F 22.8 °F 27.0 °F 96% 30.59 in 9.0 mi South 4.6 mph - N/A   Overcast
7:52 AM 33.1 °F 30.0 °F 30.9 °F 92% 30.58 in 10.0 mi Variable 3.5 mph - N/A   Overcast
8:43 AM 35.6 °F 28.6 °F 32.0 °F 87% 30.51 in 10.0 mi South 9.2 mph - N/A   Partly Cloudy
8:52 AM 37.0 °F 29.3 °F 32.0 °F 82% 30.56 in 10.0 mi South 11.5 mph 19.6 mph N/A   Partly Cloudy
9:52 AM 39.0 °F 31.0 °F 32.0 °F 76% 30.56 in 10.0 mi South 13.8 mph 18.4 mph N/A   Clear
10:52 AM 43.0 °F 37.2 °F 33.1 °F 68% 30.53 in 10.0 mi SSW 10.4 mph 20.7 mph N/A   Clear
11:52 AM 44.1 °F 36.5 °F 33.1 °F 65% 30.51 in 10.0 mi SSW 17.3 mph 26.5 mph N/A   Clear
12:52 PM 45.0 °F 39.7 °F 34.0 °F 65% 30.47 in 10.0 mi SSW 10.4 mph 21.9 mph N/A   Clear
1:52 PM 46.0 °F 39.3 °F 34.0 °F 63% 30.45 in 10.0 mi SSW 16.1 mph 24.2 mph N/A   Clear
2:52 PM 46.0 °F 41.9 °F 35.1 °F 66% 30.45 in 10.0 mi SSW 8.1 mph 18.4 mph N/A   Clear
3:52 PM 45.0 °F 40.6 °F 35.1 °F 68% 30.42 in 10.0 mi SSW 8.1 mph - N/A   Clear
4:52 PM 43.0 °F - 35.1 °F 74% 30.43 in 10.0 mi Calm Calm - N/A   Clear
5:52 PM 41.0 °F 36.4 °F 35.1 °F 79% 30.42 in 10.0 mi South 6.9 mph - N/A   Clear
6:52 PM 42.1 °F 37.7 °F 36.0 °F 79% 30.42 in 10.0 mi SSW 6.9 mph - N/A   Clear
8:52 PM 41.0 °F 37.1 °F 37.9 °F 89% 30.40 in 10.0 mi SW 5.8 mph - N/A   Mostly Cloudy
9:52 PM 42.1 °F 36.6 °F 39.9 °F 92% 30.39 in 10.0 mi SW 9.2 mph - N/A   Overcast
10:52 PM 43.0 °F 38.2 °F 39.9 °F 89% 30.40 in 10.0 mi SW 8.1 mph - N/A   Overcast
11:52 PM 43.0 °F 37.7 °F 39.9 °F 89% 30.40 in 10.0 mi SW 9.2 mph 21.9 mph N/A   Overcast